sat.trackr.live / text

‹ back to catalog

STARLINK-11646 [DTC]

NORAD 63186 · 2025-048D

PAYLOAD ACTIVE UNKNOWN

§ Identity

Operator
Country
US
Launch date
2025-03-13
Launch site
AFETR
Launch vehicle
Mass (kg)
RCS (m²)

Purposes: comms

External: N2YO · Heavens-Above · Gunter

§ Orbital elements

Epoch: 2026-05-25T04:05:25.440576Z

Period
91.67 min
Inclination
43.0014°
Eccentricity
0.0001901
Mean motion
15.70885748 rev/d
Perigee alt
355.1 km
Apogee alt
357.6 km
Semi-major
6,734.5 km
B*
1.3141e-3
RAAN
218.5341°
Arg perigee
266.7789°
Mean anomaly
93.2861°
Rev number
7,055

§ Raw data

STARLINK-11646 [DTC]1 63186U 25048D   26145.17043334  .00172032  00000+0  13141-2 0  99922 63186  43.0014 218.5341 0001901 266.7789  93.2861 15.70885748 70557

JSON: /api/v1/satellites/63186 · /tle

For live sub-satellite position, see the globe view (requires WebGL).

§ Visibility from observer

Set your observer location to see the next 7 days of passes ≥ 10°. The values pass through the URL so the page stays shareable.

No JS? Fill the form by hand. The geolocation button needs JavaScript.